Printer-friendly version

IAU Minor Planet Center

Minor Planet Center

MPEC 2006-D17 : 2006 DV

The following Minor Planet Electronic Circular may be linked-to from your own Web pages, but must not otherwise be redistributed electronically.


Read MPEC 2006-D16 Read MPEC 2006-D18


M.P.E.C. 2006-D17                                Issued 2006 Feb. 22, 18:22 UT

     The Minor Planet Electronic Circulars contain information on unusual
         minor planets and routine data on comets.  They are published
   on behalf of Commission 20 of the International Astronomical Union by the
          Minor Planet Center, Smithsonian Astrophysical Observatory,
                          Cambridge, MA 02138, U.S.A.

                  Supported in part by the Brinson Foundation
                  Supported in part by the TABASGO Foundation
             Prepared using the Tamkin Foundation Computer Network

                              MPC@CFA.HARVARD.EDU
          URL http://cfa-www.harvard.edu/iau/mpc.html  ISSN 1523-6714

                                    2006 DV

Observations:
     K06D00V* C2006 02 20.44412 13 16 34.75 -07 27 57.6          19.5 V ED017703
     K06D00V  C2006 02 20.45358 13 16 36.62 -07 26 59.6          19.7 V ED017703
     K06D00V  C2006 02 20.46307 13 16 38.85 -07 26 02.9          18.9 V ED017703
     K06D00V  C2006 02 20.47252 13 16 40.72 -07 25 07.1          18.7 V ED017703
     K06D00V  C2006 02 20.49668 13 16 45.80 -07 22 41.0          19.6 V ED017703
     K06D00V  C2006 02 20.50213 13 16 46.99 -07 22 07.7          19.6 V ED017703
     K06D00V  C2006 02 20.50758 13 16 47.96 -07 21 35.6          18.7 V ED017703
     K06D00V  C2006 02 20.51294 13 16 49.26 -07 21 02.8          19.5 V ED017703
     K06D00V  C2006 02 22.32794 13 23 50.31 -04 02 55.9          19.2 V ED017703
     K06D00V  C2006 02 22.33165 13 23 51.05 -04 02 29.7          18.8 V ED017703
     K06D00V  C2006 02 22.33537 13 23 51.95 -04 02 04.3          19.3 V ED017703
     K06D00V  C2006 02 22.43888 13 24 16.45 -03 49 46.2          19.2 V ED017703
     K06D00V  C2006 02 22.44637 13 24 18.31 -03 48 51.1          19.0 V ED017703
     K06D00V  C2006 02 22.45385 13 24 20.02 -03 47 57.5          18.9 V ED017703

Observer details:
703 Catalina Sky Survey.  Observers R. A. Kowalski, R. Hill.  Measurers
    E. C. Beshore, E. J. Christensen, G. J. Garradd, A. D. Grauer, R. E. Hill,
    R. A. Kowalski, S. M. Larson, R. H. McNaught.  0.68-m Schmidt + CCD.

Orbital elements:
2006 DV                                                  Earth MOID = 0.0795 AU
Epoch 2006 Mar. 6.0 TT = JDT 2453800.5                  MPC
M 335.87062              (2000.0)            P               Q
n   0.39901168     Peri.   96.45932     -0.05179485     +0.97401194
a   1.8273103      Node   164.15463     -0.86463207     -0.15422102
e   0.5951725      Incl.   53.85717     +0.49972860     -0.16588131
P   2.47           H   19.5           G   0.15           U   9
Residuals in seconds of arc
060220 703  0.1-  0.7-    060220 703  0.8+  0.5+    060222 703  0.5-  0.8-
060220 703  1.8-  0.6+    060220 703  1.8-  0.3-    060222 703  0.6-  0.9-
060220 703  1.8+  0.3+    060220 703  0.7+  0.2+    060222 703  0.7+  0.5+
060220 703  0.2+  0.6-    060222 703  1.3+  0.3+    060222 703  0.2-  0.5+
060220 703  0.2+  0.0     060222 703  0.8-  0.2+

Ephemeris:
2006 DV                  a,e,i = 1.83, 0.60, 54                  q = 0.7397
Date    TT    R. A. (2000) Decl.     Delta      r     Elong.  Phase     V
2006 02 14    12 56.69   -15 38.2    0.476    1.322   125.5    37.5    20.0
2006 02 24    13 31.01   -00 29.5    0.316    1.228   133.3    35.9    18.9
2006 03 06    14 41.16   +33 01.3    0.230    1.134   123.1    47.1    18.4
2006 03 16    17 42.91   +64 02.7    0.280    1.041    91.7    72.8    19.4
2006 03 26    21 08.96   +65 18.5    0.409    0.952    71.7    84.3    20.4
2006 04 05    22 31.97   +59 38.2    0.555    0.870    60.2    86.2    20.9
2006 04 15    23 11.36   +54 18.2    0.697    0.803    52.7    83.6    21.2
2006 04 25    23 38.56   +49 13.5    0.826    0.757    47.6    78.8    21.2
2006 05 05    00 02.87   +44 07.8    0.936    0.740    44.5    72.9    21.3
2006 05 15    00 27.28   +38 58.4    1.023    0.754    43.5    67.4    21.3
2006 05 25    00 52.29   +33 50.3    1.084    0.797    44.5    63.0    21.4
2006 06 04    01 17.39   +28 45.6    1.122    0.863    47.3    59.8    21.6
2006 06 14    01 41.96   +23 41.2    1.139    0.943    51.6    57.5    21.7
2006 06 24    02 05.52   +18 30.5    1.140    1.032    56.9    55.5    21.9
2006 07 04    02 27.66   +13 05.6    1.129    1.125    63.0    53.6    22.0
2006 07 14    02 48.07   +07 18.7    1.112    1.219    69.7    51.5    22.1
2006 07 24    03 06.44   +01 04.4    1.092    1.313    77.0    48.9    22.1

Kyle E. Smalley              (C) Copyright 2006 MPC           M.P.E.C. 2006-D17

Read MPEC 2006-D16 Read MPEC 2006-D18


Our Web policy. Index to the CBAT/MPC/ICQ pages.


Valid HTML 4.01!